www.pogodaiklimat.ru

ПОГОДА в Ouahigouya

  • Прогноз погоды в Ouahigouya
  • Монитор погоды в Ouahigouya
  • Климат города

АРХИВ ПОГОДЫ в Ouahigouya

Время (UTC), дата Ветер
(напр.,м/с)
 
Видим.   Явления Облачность Т
(С)
Тd
(С)
f
(%)
Тe
(С)
Тes
(С)
Комфортность P
(гПа)
Po
(гПа)
Тmin
(С)
Tmax
(С)
R
(мм)
S
(см)
18 9.01 С 1 10 км 9/0
[Ci sp]
+29.5 -0.5 14 +27 +27 жарко 1009.6 971.9 +33.4
21 9.01 С 1 10 км 9/0
[Ci sp]
+24.4 -1.8 18 +23 +23 комфорт 1012.3 974.5
00 10.01 С 3 10 км 9/0
[Ci sp]
+21.1 -1.8 21 +20 +20 1011.6 974.0
03 10.01 СВ 2 10 км 9/0
[Ci sp]
+19.7 -5.6 18 +20 +20 1010.3 972.8
06 10.01 В 1 10 км 9/0
[Ci sp]
+17.5 -5.1 21 +19 +19 1010.4 972.6 +17.5
09 10.01 В 2 10 км 9/0
[Ci sp]
+23.7 -4.6 15 +22 +27 комфорт 1011.9 974.1
12 10.01 ЮВ 3 10 км 9/0
[Ac trans Ci sp]
+30.2 -12.9 5 +26 +35 жарко 1010.6 973.0
15 10.01 С 3 10 км 9/0
[Ci sp]
+31.8 -12.8 5 +27 +32 жарко 1007.7 970.2
18 10.01 СВ 1 10 км 9/0
[Ci sp]
+28.8 -4.9 11 +26 +26 жарко 1008.1 970.3 +32.6
21 10.01 СВ 1 10 км 9/0
[Ci sp]
+24.4 -4.2 15 +22 +22 комфорт 1009.7 972.0
00 11.01 СВ 1 10 км 9/0
[Ci sp]
+22.7 -6.9 13 +21 +21 комфорт 1009.4 972.0
03 11.01 СВ 1 10 км 9/0
[Ac trans Ci sp]
+19.4 -3.0 22 +20 +20 1008.2 970.7
06 11.01 В 2 10 км 9/0
[Ci sp]
+18.5 -7.8 16 +19 +19 1008.9 971.1 +18.5
09 11.01 В 3 10 км 9/0
[Ci sp]
+21.4 -11.4 10 +20 +24 1011.2 973.3
12 11.01 С 3 10 км 9/0
[Ac trans Ci sp]
+27.0 -11.8 7 +23 +33 комфорт 1010.2 972.5
15 11.01 СЗ 2 15 км 9/0
[Ci sp]
+30.0 -15.1 4 +25 +32 комфорт 1008.1 970.5
18 11.01 СЗ 1 15 км 9/0
[Ci sp]
+28.0 -4.7 11 +25 +25 комфорт 1009.0 971.2 +30.5
21 11.01 С 2 10 км 9/0
[Ci sp]
+21.5 -2.2 20 +21 +21 комфорт 1011.5 973.3
00 12.01 С 3 10 км 9/0
[Ci sp]
+18.7 -5.6 19 +19 +19 1011.3 973.3
03 12.01 С 3 10 км 9/0
[Ci sp]
+17.5 -10.2 14 +18 +18 1010.3 972.4
06 12.01 С 3 10 км 9/0
[Ci sp]
+16.0 -12.3 13 +16 +16 1011.0 972.9 +15.5
09 12.01 В 2 15 км 9/0
[Ci sp]
+21.0 -16.9 7 +20 +25 1013.9 975.6
12 12.01 В 2 15 км 9/0
[Ci sp]
+27.5 -18.5 4 +23 +35 комфорт 1013.3 975.3
15 12.01 В 2 10 км 9/0
[Ci sp]
+30.0 -15.1 4 +25 +32 комфорт 1010.6 972.8
18 12.01 СВ 2 10 км 9/0
[Ci sp]
+26.9 -15.1 5 +23 +23 комфорт 1012.2 974.0 +30.6
21 12.01 В 3 10 км 9/0
[Ci sp]
+22.0 -9.2 12 +20 +20 1014.6 976.4
00 13.01 В 4 10 км 9/0
[Ci sp]
+20.5 -11.0 11 +20 +20 1013.9 976.0
03 13.01 В 4 10 км 9/0
[Ci sp]
+19.0 -9.3 14 +19 +19 1012.7 974.9
06 13.01 СВ 3 10 км 9/0
[Ci sp]
+16.2 -5.3 22 +16 +16 1013.8 975.6 +16.2
09 13.01 В 4 10 км 9/0
[Ci sp]
+18.0 -4.9 21 +18 +21 1016.6 978.1
12 13.01 ЮВ 2 10 км 9/0
[Ci sp]
+23.7 -5.1 14 +22 +34 комфорт 1014.5 976.3
15 13.01 ЮВ 2 10 км 9/0
[Ci sp]
+27.7 -4.5 12 +25 +31 комфорт 1011.5 973.6
18 13.01 В 1 10 км 9/0
[Ci sp]
+24.9 -5.4 13 +23 +23 комфорт 1012.2 973.9 +27.7
21 13.01 В 2 10 км 9/0
[Ci sp]
+20.5 -0.7 24 +21 +21 комфорт 1014.2 975.6
00 14.01 В 2 10 км 9/0
[Ci sp]
+17.9 -1.3 27 +18 +18 1013.2 974.9
03 14.01 В 2 10 км 9/0
[Ci sp]
+16.5 -6.6 20 +17 +17 1012.1 974.0
06 14.01 ЮВ 3 10 км 9/0
[Ci sp]
+14.8 -4.7 26 +14 +14 1012.7 974.3 +14.7
09 14.01 ЮВ 3 15 км 9/0
[Ci sp]
+19.9 -7.8 15 +20 +24 1013.7 975.4
12 14.01 ЮВ 3 15 км 9/0
[Ci sp]
+26.0 -9.0 9 +23 +33 комфорт 1011.9 973.8
15 14.01 С 1 15 км 9/0
[Ci sp]
+28.5 -6.5 10 +25 +32 комфорт 1009.0 971.1
18 14.01 С 1 15 км 9/0
[Ci sp]
+26.5 -2.9 14 +24 +24 комфорт 1009.5 971.3 +29.2
21 14.01 С 1 10 км 9/0
[Ci sp]
+21.4 -1.6 21 +21 +21 комфорт 1010.6 972.4
00 15.01 С 3 10 км 9/0
[Ci sp]
+19.0 -4.4 20 +19 +19 1010.6 972.6
03 15.01 СВ 1 10 км 9/0
[Ci sp]
+17.0 -4.0 23 +18 +18 1009.6 971.7
06 15.01 В 2 10 км 9/0
[Ci sp]
+15.3 -7.5 20 +15 +15 1010.0 971.9 +15.1
09 15.01 С 2 15 км 9/0
[Ci sp]
+21.6 -9.9 11 +20 +25 1012.2 974.0
12 15.01 С 1 15 км 9/0
[Ci sp]
+28.5 -9.2 8 +25 +39 комфорт 1010.6 972.8
15 15.01 ЮВ 2 10 км 9/0
[Ci sp]
+31.1 -7.2 8 +27 +33 жарко 1007.7 970.0
18 15.01 штиль 0 15 км 9/0
[Ci sp]
+29.0 -2.3 13 +26 +26 жарко 1009.0 971.0 +32.1
21 15.01 С 2 10 км 9/0
[Ci sp]
+23.5 -2.3 18 +22 +22 комфорт 1010.8 972.8
00 16.01 С 2 10 км 9/0
[Ci sp]
+21.0 -3.8 19 +21 +21 комфорт 1010.2 972.6
03 16.01 СВ 2 10 км 9/0
[Ci sp]
+19.0 -3.9 21 +19 +19 1009.1 971.5
06 16.01 СВ 1 10 км 9/0
[Ac As Ci sp]
+18.4 -7.5 16 +19 +19 1009.7 971.9 +18.0
09 16.01 СВ 1 10 км 9/0
[Ci sp]
+22.7 -9.4 11 +21 +27 комфорт 1011.8 973.9
12 16.01 В 2 10 км 9/0
[Ac trans Ci sp]
+28.6 -11.9 6 +25 +34 комфорт 1010.6 972.9
15 16.01 В 2 10 км 9/0
[Ac trans Ci sp]
+31.3 -9.2 7 +27 +32 жарко 1007.7 970.2

 

Местоположение метеостанции Ouahigouya (Буркина-Фасо): широта 13.57 долгота -2.42 высота над уровнем моря 336 м.

В архиве по умолчанию представлена погода в Ouahigouya за последнюю неделю. Архивные данные за месяц целиком и за предыдущие месяцы, начиная с января 2011 года, Вы можете получить, выбрав интересующий диапазон дат из раскрывающегося списка и нажав кнопку "Ввод!".

Внимание! Время в таблицах - всемирное. Для получения местного времени необходимо прибавить поправку, которая в Ouahigouya равна 0 ч.

Ветер - указаны скорость ветра в м/с - средняя за 10 мин, порывы в срок и между сроками (в фигурных скобках) и направление, откуда дует ветер: С - северный, СВ - северо-восточный, В - восточный, ЮВ - юго-восточный, Ю - южный, ЮЗ - юго-западный, З - западный, СЗ - северо-западный.
Видимость - горизонтальная дальность видимости в метрах или километрах. При видимости от 1 до 10 км при отсутствии осадков обычно наблюдается дымка, при ухудшении видимости до 1 км и менее - туман. В сухую погоду видимость может ухудшаться дымом, пылью или мглою.
Явления - указаны атмосферные явления, наблюдавшиеся в срок или в последний час перед сроком; фигурными скобками обозначены явления, наблюдавшиеся между сроками (за 1-3 часа до срока); квадратными скобками обозначены град или гололедные отложения с указанием их диаметра в мм.
Облачность - указаны через наклонную черту общая и нижняя облачность в баллах и высота нижней границы облаков в метрах; квадратными скобками обозначены формы облаков: Ci - перистые, Cs - перисто-слоистые, Cc - перисто-кучевые, Ac - высококучевые, As - высокослоистые, Sc - слоисто-кучевые, Ns - слоисто-дождевые, Cu - кучевые, Cb - кучево-дождевые. Подробнее классификацию облаков см. в Атласе облаков (PDF).
T - Температура воздуха - температура, измеренная на высоте 2 м над землей.
Td - Температура точки росы - температура, при понижении до которой содержащийся в воздухе водяной пар достигнет насыщения.
f - Относительная влажность воздуха - влажноcть воздуха, измеренная на высоте 2 м над землей.
Te - Эффективная температура - температура, которую ощущает одетый по сезону человек в тени. Характеристика душности погоды. При расчете учитывается влияние влажности воздуха и скорости ветра на теплоощущения человека.
Tes - Эффективная температура на солнце - температура, которую ощущает человек, с поправкой на солнечный нагрев. Характеристика знойности погоды. Зависит от высоты солнца над горизонтом, облачности и скорости ветра. Ночью, в пасмурную погоду, а также при ветре 12 м/с и более поправка равна нулю.
P - Атмосферное давление - приведенное к уровню моря атмосферное давление.
Po - Атмосферное давление - измеренное на уровне метеостанции атмосферное давление.
Tmin - Минимальная температура - минимум температуры воздуха на высоте 2 м над землей.
Tmax - Максимальная температура - максимум температуры воздуха на высоте 2 м над землей.
R - Количество осадков - Количество выпавших осадков, мм. При наведении курсора мыши на число - период времени, за который выпало указанное количество осадков.
S - Снежный покров - Высота снежного покрова, см. При наведении курсора мыши на число - состояние снежного покрова и степень покрытия местности в баллах.